When you browse on this site, cookies collect data to enhance your experience and personalize the content and advertising you see.
Visit our Privacy Policy to learn more. By continuing to use the site, you agree to this use of cookies and data.
  • In Latvia
  • List of Countries
  • For 7 days
  • Water Temperature
  • Satellite Maps
  • Weather Map
  • Weather Widgets
  • user-avatar
    Login

    Hourly Weather Mayrhofen

    Today, 21 July, Sunday

    Time Temperature Precipitation Wind Pressure Humidity
    00:00 +12°C° 0.2 mm 1 mps 622 mmHg 89%
    01:00 +12°C° 0 mm 1 mps 622 mmHg 87%
    02:00 +12°C° 0.1 mm 1 mps 622 mmHg 87%
    03:00 +12°C° 0.1 mm 1 mps 621 mmHg 87%
    04:00 +11°C° 0.1 mm 1 mps 621 mmHg 87%
    05:00 +13°C° 0.1 mm 1 mps 622 mmHg 86%
    06:00 +14°C° 0.1 mm 1 mps 622 mmHg 85%
    07:00 +15°C° 0.1 mm 1 mps 623 mmHg 84%
    08:00 +15°C° 0.6 mm 1 mps 624 mmHg 84%
    09:00 +16°C° 0.6 mm 1 mps 624 mmHg 83%
    10:00 +17°C° 0.6 mm 2 mps 624 mmHg 83%
    11:00 +17°C° 0.6 mm 2 mps 624 mmHg 82%
    12:00 +18°C° 0.6 mm 1 mps 624 mmHg 82%
    13:00 +18°C° 0.6 mm 1 mps 624 mmHg 81%
    14:00 +18°C° 0.4 mm 1 mps 625 mmHg 77%
    15:00 +18°C° 0.4 mm 2 mps 625 mmHg 73%
    16:00 +19°C° 0.4 mm 2 mps 626 mmHg 68%
    17:00 +18°C° 0.3 mm 2 mps 625 mmHg 74%
    18:00 +18°C° 0.3 mm 1 mps 625 mmHg 80%
    19:00 +16°C° 0.3 mm 1 mps 624 mmHg 86%
    20:00 +14°C° 0.1 mm 1 mps 624 mmHg 89%
    21:00 +12°C° 0.1 mm 1 mps 624 mmHg 91%
    22:00 +11°C° 0.1 mm 1 mps 624 mmHg 94%
    23:00 +10°C° 0 mm 1 mps 624 mmHg 93%

    Tomorrow, 22 July, Monday

    Time Temperature Precipitation Wind Pressure Humidity
    00:00 +10°C° 0 mm 1 mps 623 mmHg 93%
    01:00 +8°C° 0 mm 0 mps 623 mmHg 93%
    02:00 +9°C° 0 mm 1 mps 623 mmHg 92%
    03:00 +9°C° 0 mm 1 mps 623 mmHg 92%
    04:00 +9°C° 0 mm 1 mps 623 mmHg 91%
    05:00 +11°C° 0 mm 1 mps 624 mmHg 87%
    06:00 +13°C° 0 mm 1 mps 625 mmHg 83%
    07:00 +14°C° 0 mm 1 mps 625 mmHg 80%
    08:00 +16°C° 0 mm 1 mps 626 mmHg 71%
    09:00 +19°C° 0 mm 1 mps 627 mmHg 63%
    10:00 +21°C° 0 mm 1 mps 628 mmHg 54%
    11:00 +22°C° 0 mm 1 mps 628 mmHg 50%
    12:00 +23°C° 0 mm 2 mps 628 mmHg 46%
    13:00 +24°C° 0 mm 2 mps 628 mmHg 41%
    14:00 +24°C° 0 mm 2 mps 628 mmHg 41%
    15:00 +24°C° 0 mm 2 mps 628 mmHg 42%
    16:00 +24°C° 0 mm 2 mps 628 mmHg 42%
    17:00 +21°C° 0 mm 2 mps 627 mmHg 53%
    18:00 +19°C° 0 mm 2 mps 626 mmHg 64%
    19:00 +18°C° 0 mm 2 mps 626 mmHg 75%
    20:00 +16°C° 0 mm 1 mps 625 mmHg 81%
    21:00 +14°C° 0 mm 1 mps 625 mmHg 87%
    22:00 +12°C° 0 mm 1 mps 625 mmHg 93%
    23:00 +11°C° 0 mm 0 mps 624 mmHg 93%

    Day after tomorrow, 23 July, Tuesday

    Time Temperature Precipitation Wind Pressure Humidity
    00:00 +11°C° 0 mm 0 mps 624 mmHg 93%
    01:00 +10°C° 0 mm 0 mps 624 mmHg 92%
    02:00 +10°C° 0 mm 0 mps 623 mmHg 91%
    03:00 +10°C° 0 mm 0 mps 623 mmHg 91%
    04:00 +9°C° 0 mm 0 mps 623 mmHg 90%
    05:00 +11°C° 0 mm 0 mps 624 mmHg 83%
    06:00 +14°C° 0 mm 0 mps 625 mmHg 77%
    07:00 +16°C° 0 mm 0 mps 625 mmHg 70%
    08:00 +18°C° 0 mm 0 mps 626 mmHg 61%
    09:00 +20°C° 0 mm 0 mps 627 mmHg 52%
    10:00 +24°C° 0 mm 1 mps 627 mmHg 43%
    11:00 +25°C° 0 mm 1 mps 627 mmHg 40%
    12:00 +25°C° 0 mm 1 mps 627 mmHg 37%
    13:00 +26°C° 0 mm 1 mps 628 mmHg 34%
    14:00 +26°C° 0 mm 2 mps 627 mmHg 36%
    15:00 +26°C° 0 mm 2 mps 627 mmHg 37%
    16:00 +26°C° 0 mm 2 mps 627 mmHg 39%
    17:00 +24°C° 0 mm 2 mps 626 mmHg 50%
    18:00 +22°C° 0 mm 1 mps 625 mmHg 60%
    19:00 +21°C° 0 mm 1 mps 625 mmHg 71%
    20:00 +19°C° 0 mm 1 mps 624 mmHg 76%
    21:00 +16°C° 0 mm 1 mps 624 mmHg 81%
    22:00 +14°C° 0 mm 1 mps 623 mmHg 85%
    23:00 +14°C° 0 mm 1 mps 623 mmHg 86%

    24 July, Wednesday

    Time Temperature Precipitation Wind Pressure Humidity
    00:00 +14°C° 0 mm 1 mps 623 mmHg 88%
    01:00 +14°C° 0 mm 1 mps 623 mmHg 89%
    02:00 +13°C° 0 mm 1 mps 622 mmHg 90%
    03:00 +13°C° 0 mm 1 mps 622 mmHg 91%
    04:00 +13°C° 0 mm 1 mps 622 mmHg 91%
    05:00 +15°C° 0 mm 1 mps 623 mmHg 87%
    06:00 +16°C° 0 mm 1 mps 623 mmHg 83%
    07:00 +19°C° 0 mm 1 mps 624 mmHg 79%
    08:00 +21°C° 0 mm 1 mps 625 mmHg 70%
    09:00 +23°C° 0 mm 1 mps 625 mmHg 61%
    10:00 +25°C° 0 mm 1 mps 626 mmHg 52%
    11:00 +26°C° 0 mm 1 mps 626 mmHg 48%
    12:00 +27°C° 0 mm 1 mps 626 mmHg 44%
    13:00 +27°C° 0 mm 1 mps 626 mmHg 40%
    14:00 +27°C° 0.2 mm 1 mps 626 mmHg 42%
    15:00 +27°C° 0.2 mm 1 mps 626 mmHg 44%
    16:00 +26°C° 0.2 mm 1 mps 625 mmHg 47%
    17:00 +25°C° 0.4 mm 1 mps 625 mmHg 58%
    18:00 +23°C° 0.4 mm 1 mps 624 mmHg 68%
    19:00 +19°C° 0.4 mm 0 mps 624 mmHg 79%
    20:00 +18°C° 0.4 mm 0 mps 623 mmHg 82%
    21:00 +17°C° 0.4 mm 0 mps 623 mmHg 85%
    22:00 +15°C° 0.4 mm 0 mps 623 mmHg 88%
    23:00 +16°C° 0.1 mm 1 mps 623 mmHg 89%

    25 July, Thursday

    Time Temperature Precipitation Wind Pressure Humidity
    00:00 +16°C° 0.1 mm 1 mps 623 mmHg 89%
    01:00 +16°C° 0.1 mm 1 mps 622 mmHg 89%
    02:00 +15°C° 0 mm 1 mps 622 mmHg 90%
    03:00 +15°C° 0 mm 1 mps 622 mmHg 90%
    04:00 +15°C° 0 mm 1 mps 621 mmHg 91%
    05:00 +16°C° 0 mm 1 mps 622 mmHg 89%
    06:00 +18°C° 0 mm 1 mps 622 mmHg 86%
    07:00 +19°C° 0 mm 1 mps 623 mmHg 84%
    08:00 +21°C° 0 mm 1 mps 624 mmHg 75%
    09:00 +23°C° 0 mm 1 mps 624 mmHg 67%
    10:00 +25°C° 0 mm 1 mps 625 mmHg 58%
    11:00 +26°C° 0.3 mm 1 mps 625 mmHg 55%
    12:00 +27°C° 0.3 mm 1 mps 625 mmHg 51%
    13:00 +28°C° 0.3 mm 2 mps 625 mmHg 48%
    14:00 +27°C° 0.7 mm 2 mps 624 mmHg 50%
    15:00 +26°C° 0.7 mm 2 mps 624 mmHg 53%
    16:00 +26°C° 0.7 mm 2 mps 623 mmHg 55%
    17:00 +24°C° 0.5 mm 2 mps 623 mmHg 63%
    18:00 +23°C° 0.5 mm 1 mps 622 mmHg 70%
    19:00 +21°C° 0.5 mm 1 mps 622 mmHg 78%
    20:00 +20°C° 0.3 mm 1 mps 621 mmHg 81%
    21:00 +17°C° 0.3 mm 2 mps 621 mmHg 84%
    22:00 +16°C° 0.3 mm 2 mps 621 mmHg 87%
    23:00 +15°C° 0.2 mm 2 mps 621 mmHg 88%

    26 July, Friday

    Time Temperature Precipitation Wind Pressure Humidity
    00:00 +15°C° 0.2 mm 2 mps 620 mmHg 90%
    01:00 +14°C° 0.2 mm 2 mps 620 mmHg 91%
    02:00 +14°C° 0.1 mm 2 mps 620 mmHg 91%
    03:00 +14°C° 0.1 mm 1 mps 620 mmHg 91%
    04:00 +13°C° 0.1 mm 1 mps 619 mmHg 91%
    05:00 +15°C° 0 mm 1 mps 620 mmHg 88%
    06:00 +16°C° 0 mm 1 mps 621 mmHg 85%
    07:00 +19°C° 0 mm 1 mps 621 mmHg 82%
    08:00 +20°C° 0.3 mm 1 mps 622 mmHg 76%
    09:00 +22°C° 0.3 mm 1 mps 622 mmHg 70%
    10:00 +24°C° 0.3 mm 1 mps 623 mmHg 63%
    11:00 +24°C° 0.7 mm 1 mps 623 mmHg 63%
    12:00 +24°C° 0.7 mm 2 mps 622 mmHg 62%
    13:00 +24°C° 0.7 mm 2 mps 622 mmHg 62%
    14:00 +24°C° 0.9 mm 2 mps 622 mmHg 63%
    15:00 +24°C° 0.9 mm 1 mps 622 mmHg 63%
    16:00 +24°C° 0.9 mm 1 mps 621 mmHg 64%
    17:00 +22°C° 0.8 mm 1 mps 621 mmHg 72%
    18:00 +21°C° 0.8 mm 1 mps 620 mmHg 80%
    19:00 +18°C° 0.8 mm 0 mps 620 mmHg 88%
    20:00 +18°C° 0.6 mm 1 mps 619 mmHg 90%
    21:00 +16°C° 0.6 mm 1 mps 619 mmHg 92%
    22:00 +14°C° 0.6 mm 1 mps 618 mmHg 94%
    23:00 +14°C° 0.5 mm 1 mps 618 mmHg 95%
    Show more